Hourly Weather Golabki

Today, 17 May, Monday

Time Temperature Precipitation Wind Pressure Humidity
00:00 +9°C° 0 mm 2 mps 744 mmHg 92%
01:00 +8°C° 0 mm 2 mps 744 mmHg 92%
02:00 +8°C° 0 mm 2 mps 744 mmHg 92%
03:00 +8°C° 0 mm 2 mps 744 mmHg 92%
04:00 +8°C° 0 mm 2 mps 744 mmHg 92%
05:00 +10°C° 0 mm 2 mps 744 mmHg 87%
06:00 +11°C° 0 mm 3 mps 744 mmHg 83%
07:00 +13°C° 0 mm 3 mps 744 mmHg 79%
08:00 +14°C° 0.1 mm 3 mps 744 mmHg 73%
09:00 +17°C° 0.1 mm 3 mps 744 mmHg 67%
10:00 +18°C° 0.1 mm 3 mps 744 mmHg 62%
11:00 +18°C° 0.3 mm 3 mps 744 mmHg 62%
12:00 +18°C° 0.3 mm 3 mps 744 mmHg 63%
13:00 +19°C° 0.3 mm 3 mps 744 mmHg 63%
14:00 +18°C° 0.4 mm 3 mps 744 mmHg 66%
15:00 +18°C° 0.4 mm 2 mps 744 mmHg 69%
16:00 +18°C° 0.4 mm 2 mps 744 mmHg 72%
17:00 +16°C° 1.2 mm 2 mps 744 mmHg 79%
18:00 +14°C° 1.2 mm 3 mps 744 mmHg 86%
19:00 +12°C° 1.2 mm 3 mps 744 mmHg 94%
20:00 +12°C° 1.1 mm 3 mps 744 mmHg 94%
21:00 +11°C° 1.1 mm 3 mps 744 mmHg 95%
22:00 +11°C° 1.1 mm 3 mps 744 mmHg 96%
23:00 +12°C° 1.7 mm 2 mps 744 mmHg 96%

Tomorrow, 18 May, Tuesday

Time Temperature Precipitation Wind Pressure Humidity
00:00 +12°C° 1.7 mm 2 mps 744 mmHg 96%
01:00 +10°C° 1.7 mm 2 mps 744 mmHg 97%
02:00 +10°C° 1.7 mm 2 mps 744 mmHg 97%
03:00 +10°C° 1.7 mm 2 mps 745 mmHg 97%
04:00 +10°C° 1.7 mm 2 mps 745 mmHg 97%
05:00 +10°C° 0.7 mm 2 mps 745 mmHg 97%
06:00 +12°C° 0.7 mm 2 mps 745 mmHg 96%
07:00 +12°C° 0.7 mm 2 mps 745 mmHg 96%
08:00 +12°C° 0.2 mm 2 mps 745 mmHg 93%
09:00 +13°C° 0.2 mm 2 mps 746 mmHg 91%
10:00 +12°C° 0.2 mm 3 mps 746 mmHg 89%
11:00 +12°C° 0.5 mm 3 mps 746 mmHg 88%
12:00 +13°C° 0.5 mm 3 mps 746 mmHg 87%
13:00 +13°C° 0.5 mm 4 mps 746 mmHg 86%
14:00 +13°C° 0.4 mm 3 mps 746 mmHg 87%
15:00 +13°C° 0.4 mm 3 mps 747 mmHg 87%
16:00 +13°C° 0.4 mm 3 mps 747 mmHg 87%
17:00 +13°C° 0.1 mm 3 mps 747 mmHg 88%
18:00 +13°C° 0.1 mm 2 mps 747 mmHg 89%
19:00 +13°C° 0.1 mm 2 mps 747 mmHg 89%
20:00 +12°C° 0 mm 2 mps 747 mmHg 91%
21:00 +12°C° 0 mm 2 mps 747 mmHg 93%
22:00 +10°C° 0 mm 2 mps 748 mmHg 94%
23:00 +10°C° 0 mm 2 mps 748 mmHg 95%

Day after tomorrow, 19 May, Wednesday

Time Temperature Precipitation Wind Pressure Humidity
00:00 +9°C° 0 mm 2 mps 748 mmHg 95%
01:00 +9°C° 0 mm 2 mps 748 mmHg 95%
02:00 +8°C° 0.2 mm 2 mps 748 mmHg 96%
03:00 +8°C° 0.2 mm 2 mps 748 mmHg 97%
04:00 +8°C° 0.2 mm 2 mps 749 mmHg 97%
05:00 +9°C° 0 mm 3 mps 749 mmHg 94%
06:00 +10°C° 0 mm 3 mps 749 mmHg 90%
07:00 +11°C° 0 mm 4 mps 749 mmHg 87%
08:00 +12°C° 0 mm 4 mps 749 mmHg 80%
09:00 +14°C° 0 mm 4 mps 749 mmHg 73%
10:00 +15°C° 0 mm 4 mps 749 mmHg 67%
11:00 +15°C° 0.2 mm 4 mps 750 mmHg 66%
12:00 +15°C° 0.2 mm 4 mps 750 mmHg 66%
13:00 +15°C° 0.2 mm 4 mps 750 mmHg 65%
14:00 +15°C° 0.4 mm 4 mps 750 mmHg 66%
15:00 +15°C° 0.4 mm 4 mps 750 mmHg 67%
16:00 +15°C° 0.4 mm 4 mps 750 mmHg 67%
17:00 +14°C° 0.3 mm 4 mps 750 mmHg 73%
18:00 +13°C° 0.3 mm 3 mps 750 mmHg 79%
19:00 +12°C° 0.3 mm 3 mps 750 mmHg 85%
20:00 +11°C° 0 mm 3 mps 751 mmHg 87%
21:00 +10°C° 0 mm 3 mps 751 mmHg 90%
22:00 +9°C° 0 mm 3 mps 751 mmHg 93%
23:00 +8°C° 0 mm 3 mps 751 mmHg 93%

20 May, Thursday

Time Temperature Precipitation Wind Pressure Humidity
00:00 +8°C° 0 mm 3 mps 751 mmHg 94%
01:00 +7°C° 0 mm 3 mps 751 mmHg 95%
02:00 +5°C° 0 mm 3 mps 752 mmHg 94%
03:00 +5°C° 0 mm 3 mps 752 mmHg 93%
04:00 +4°C° 0 mm 3 mps 752 mmHg 93%
05:00 +7°C° 0 mm 3 mps 752 mmHg 88%
06:00 +7°C° 0 mm 4 mps 752 mmHg 84%
07:00 +9°C° 0 mm 5 mps 752 mmHg 79%
08:00 +10°C° 0 mm 5 mps 752 mmHg 73%
09:00 +13°C° 0 mm 5 mps 752 mmHg 67%
10:00 +14°C° 0 mm 6 mps 752 mmHg 60%
11:00 +15°C° 0 mm 6 mps 752 mmHg 57%
12:00 +16°C° 0 mm 6 mps 752 mmHg 54%
13:00 +16°C° 0 mm 6 mps 752 mmHg 50%
14:00 +16°C° 0 mm 6 mps 752 mmHg 55%
15:00 +15°C° 0 mm 6 mps 752 mmHg 60%
16:00 +14°C° 0 mm 6 mps 752 mmHg 65%
17:00 +13°C° 0.1 mm 6 mps 752 mmHg 67%
18:00 +11°C° 0.1 mm 6 mps 752 mmHg 70%
19:00 +10°C° 0.1 mm 6 mps 753 mmHg 72%
20:00 +9°C° 0 mm 5 mps 753 mmHg 74%
21:00 +7°C° 0 mm 5 mps 753 mmHg 75%
22:00 +6°C° 0 mm 4 mps 754 mmHg 77%
23:00 +5°C° 0 mm 4 mps 754 mmHg 80%

21 May, Friday

Time Temperature Precipitation Wind Pressure Humidity
00:00 +5°C° 0 mm 4 mps 754 mmHg 83%
01:00 +4°C° 0 mm 4 mps 754 mmHg 86%
02:00 +4°C° 0 mm 4 mps 754 mmHg 86%
03:00 +4°C° 0 mm 4 mps 754 mmHg 86%
04:00 +3°C° 0 mm 4 mps 754 mmHg 87%
05:00 +5°C° 0 mm 5 mps 754 mmHg 82%
06:00 +6°C° 0 mm 5 mps 754 mmHg 77%
07:00 +7°C° 0 mm 6 mps 754 mmHg 72%
08:00 +8°C° 0 mm 6 mps 754 mmHg 67%
09:00 +9°C° 0 mm 6 mps 754 mmHg 61%
10:00 +10°C° 0 mm 6 mps 754 mmHg 56%
11:00 +11°C° 0 mm 6 mps 753 mmHg 54%
12:00 +12°C° 0 mm 7 mps 753 mmHg 52%
13:00 +14°C° 0 mm 7 mps 753 mmHg 51%
14:00 +14°C° 0 mm 6 mps 753 mmHg 54%
15:00 +13°C° 0 mm 6 mps 753 mmHg 56%
16:00 +13°C° 0 mm 6 mps 753 mmHg 59%
17:00 +12°C° 0 mm 4 mps 752 mmHg 65%
18:00 +11°C° 0 mm 3 mps 752 mmHg 70%
19:00 +12°C° 0 mm 2 mps 752 mmHg 76%
20:00 +10°C° 0 mm 2 mps 752 mmHg 77%
21:00 +10°C° 0 mm 2 mps 752 mmHg 78%
22:00 +9°C° 0 mm 3 mps 752 mmHg 80%
23:00 +9°C° 0.2 mm 3 mps 751 mmHg 84%

22 May, Saturday

Time Temperature Precipitation Wind Pressure Humidity
00:00 +9°C° 0.2 mm 3 mps 751 mmHg 88%
01:00 +9°C° 0.2 mm 3 mps 751 mmHg 92%
02:00 +9°C° 0.3 mm 3 mps 750 mmHg 94%
03:00 +9°C° 0.3 mm 2 mps 750 mmHg 95%
04:00 +9°C° 0.3 mm 2 mps 750 mmHg 97%
05:00 +10°C° 0.1 mm 2 mps 750 mmHg 94%
06:00 +11°C° 0.1 mm 3 mps 749 mmHg 91%
07:00 +11°C° 0.1 mm 3 mps 749 mmHg 88%
08:00 +13°C° 0 mm 4 mps 749 mmHg 79%
09:00 +15°C° 0 mm 5 mps 749 mmHg 71%
10:00 +17°C° 0 mm 6 mps 749 mmHg 62%
11:00 +17°C° 0 mm 6 mps 749 mmHg 61%
12:00 +19°C° 0 mm 6 mps 748 mmHg 60%
13:00 +20°C° 0 mm 6 mps 748 mmHg 58%
14:00 +19°C° 0.4 mm 5 mps 748 mmHg 66%
15:00 +17°C° 0.4 mm 5 mps 749 mmHg 73%
16:00 +16°C° 0.4 mm 5 mps 749 mmHg 80%
17:00 +15°C° 0.5 mm 4 mps 749 mmHg 83%
18:00 +14°C° 0.5 mm 4 mps 749 mmHg 86%
19:00 +12°C° 0.5 mm 4 mps 749 mmHg 90%
20:00 +12°C° 0.1 mm 3 mps 749 mmHg 91%
21:00 +12°C° 0.1 mm 3 mps 750 mmHg 91%
22:00 +12°C° 0.1 mm 2 mps 750 mmHg 92%
23:00 +12°C° 0 mm 2 mps 750 mmHg 93%
Show more